Toledo Metcalf, OH

9:14 AM EDT on April 30, 2017 (GMT -0400)
Metcalf

Weather History for KTDZ - September, 2012

Change the Weather History Date:

Tuesday, September 4, 2012

  Actual Average (KTOL) Record (KTOL)
Temperature  
Mean Temperature 76 °F -  
Max Temperature 81 °F 78 °F 95 °F (1960)
Min Temperature 70 °F 55 °F 40 °F (1974)
Cooling Degree Days 10    
Growing Degree Days 26 (Base 50)    
Moisture  
Dew Point 71 °F    
Average Humidity 90    
Maximum Humidity 100    
Minimum Humidity 69    
Precipitation  
Precipitation 0.33 in - - ()
Sea Level Pressure  
Sea Level Pressure 29.88 in    
Wind  
Wind Speed 2 mph (NNW)    
Max Wind Speed 16 mph    
Max Gust Speed 22 mph    
Visibility 4 miles    
Events Rain    
Averages and records for this station are not official NWS values.
T = Trace of Precipitation, MM = Missing Value Source: NWS Daily Summary

Daily Weather History Graph

Daily Weather History Graph

Search for Another Location

Airport or City:

Trip Planner

Search our weather history database for the weather conditions in past years. The results will help you decide how hot, cold, wet, or windy it might be!

Date:

Astronomy

Sep. 04, 2012 Rise Set
Actual Time 7:03 AM EDT 8:01 PM EDT
Civil Twilight 6:35 AM EDT 8:29 PM EDT
Nautical Twilight 6:01 AM EDT 9:03 PM EDT
Astronomical Twilight 5:26 AM EDT 9:38 PM EDT
Moon 9:49 PM EDT (9/4) 11:13 AM EDT (9/4)
Length of Visible Light 13h 54m
Length of Day
12h 57m
Waning Gibbous, 84% of the Moon is Illuminated
Sep 4
Waning Gibbous
Sep 8
Last Quarter
Sep 15
New
Sep 22
First Quarter
Sep 29
Full

Hourly Weather History & Observations

Time (EDT) Temp. Heat Index Dew Point Humidity Pressure Visibility Wind Dir Wind Speed Gust Speed Precip Events Conditions
12:53 AM 72.0 °F - 71.1 °F 97% 29.90 in 1.8 mi Calm Calm - N/A   Clear
1:28 AM 71.6 °F - 71.6 °F 100% 29.91 in 2.0 mi Calm Calm - N/A   Mostly Cloudy
1:37 AM 71.6 °F - 71.6 °F 100% 29.91 in 1.8 mi Calm Calm - N/A   Overcast
1:50 AM 71.6 °F - 69.8 °F 94% 29.90 in 2.5 mi Calm Calm - N/A   Overcast
1:53 AM 72.0 °F - 70.0 °F 93% 29.88 in 2.5 mi Calm Calm - N/A   Overcast
2:14 AM 71.6 °F - 71.6 °F 100% 29.90 in 1.0 mi NNW 3.5 mph - N/A   Overcast
2:21 AM 71.6 °F - 71.6 °F 100% 29.90 in 0.8 mi NNW 4.6 mph - N/A   Overcast
2:27 AM 73.4 °F - 71.6 °F 94% 29.90 in 1.2 mi NNW 3.5 mph - N/A   Overcast
2:41 AM 73.4 °F - 71.6 °F 94% 29.89 in 2.0 mi Calm Calm - N/A   Overcast
2:53 AM 73.0 °F - 71.1 °F 93% 29.87 in 2.0 mi Calm Calm - N/A   Overcast
3:53 AM 73.0 °F - 71.1 °F 93% 29.86 in 1.8 mi Calm Calm - N/A   Overcast
4:53 AM 73.0 °F - 71.1 °F 93% 29.86 in 1.5 mi WNW 3.5 mph - N/A   Overcast
5:53 AM 73.0 °F - 72.0 °F 96% 29.87 in 1.8 mi Calm Calm - N/A   Overcast
6:16 AM 73.4 °F - 71.6 °F 94% 29.89 in 2.0 mi Calm Calm - N/A   Overcast
6:31 AM 73.4 °F - 71.6 °F 94% 29.89 in 1.8 mi Calm Calm - N/A   Overcast
6:53 AM 73.9 °F - 72.0 °F 93% 29.88 in 1.8 mi Calm Calm - N/A   Overcast
7:28 AM 73.4 °F - 71.6 °F 94% 29.90 in 1.2 mi South 3.5 mph - N/A   Overcast
7:35 AM 73.4 °F - 71.6 °F 94% 29.90 in 1.0 mi Calm Calm - N/A   Overcast
7:51 AM 73.4 °F - 71.6 °F 94% 29.90 in 1.2 mi South 3.5 mph - N/A   Overcast
7:53 AM 73.9 °F - 72.0 °F 93% 29.88 in 1.2 mi Calm Calm - N/A   Overcast
8:22 AM 73.4 °F - 71.6 °F 94% 29.90 in 2.5 mi Calm Calm - N/A   Overcast
8:53 AM 73.9 °F - 72.0 °F 93% 29.88 in 2.5 mi SW 3.5 mph - N/A   Overcast
9:45 AM 75.2 °F - 71.6 °F 89% 29.89 in 3.0 mi SW 3.5 mph - N/A   Overcast
9:53 AM 75.0 °F - 72.0 °F 90% 29.88 in 3.0 mi West 4.6 mph - N/A   Overcast
10:24 AM 75.2 °F - 71.6 °F 89% 29.89 in 4.0 mi WSW 4.6 mph - N/A   Overcast
10:37 AM 75.2 °F - 71.6 °F 89% 29.89 in 1.8 mi West 6.9 mph - 0.03 in Rain Rain
10:50 AM 75.2 °F - 71.6 °F 89% 29.89 in 3.0 mi Calm Calm - 0.06 in Rain Light Rain
10:53 AM 75.0 °F - 72.0 °F 90% 29.88 in 5.0 mi West 3.5 mph - 0.06 in Rain Light Rain
11:05 AM 75.2 °F - 73.4 °F 94% 29.90 in 5.0 mi West 3.5 mph - 0.00 in   Overcast
11:22 AM 75.2 °F - 73.4 °F 94% 29.89 in 2.5 mi West 8.1 mph - 0.01 in Rain Light Rain
11:31 AM 75.2 °F - 73.4 °F 94% 29.89 in 2.5 mi West 6.9 mph - 0.01 in Rain Light Rain
11:38 AM 75.2 °F - 71.6 °F 89% 29.89 in 5.0 mi West 5.8 mph - 0.01 in Rain Light Rain
11:53 AM 77.0 °F - 73.0 °F 88% 29.86 in 9.0 mi NW 4.6 mph - 0.01 in   Mostly Cloudy
12:19 PM 78.8 °F - 73.4 °F 83% 29.87 in 10.0 mi Calm Calm - N/A   Overcast
12:50 PM 80.6 °F 85.4 °F 73.4 °F 79% 29.88 in 10.0 mi Calm Calm - N/A   Overcast
12:53 PM 80.1 °F 84.2 °F 73.0 °F 79% 29.86 in 10.0 mi Calm Calm - N/A   Overcast
1:24 PM 80.6 °F 85.4 °F 73.4 °F 79% 29.87 in 10.0 mi ENE 5.8 mph - N/A   Overcast
1:43 PM 77.0 °F - 71.6 °F 83% 29.87 in 1.5 mi North 16.1 mph 21.9 mph 0.17 in Rain Rain
1:46 PM 75.2 °F - 71.6 °F 89% 29.87 in 0.8 mi NNE 10.4 mph 21.9 mph 0.25 in Rain Heavy Rain
1:53 PM 73.9 °F - 71.1 °F 91% 29.85 in 1.0 mi NNE 3.5 mph - 0.26 in Rain Light Rain
1:55 PM 73.4 °F - 71.6 °F 94% 29.87 in 2.0 mi Variable 5.8 mph - 0.00 in Rain Light Rain
1:57 PM 73.4 °F - 71.6 °F 94% 29.87 in 4.0 mi NE 3.5 mph - 0.00 in Rain Light Rain
2:18 PM 75.2 °F - 73.4 °F 94% 29.86 in 4.0 mi Calm Calm - 0.00 in   Overcast
2:27 PM 75.2 °F - 71.6 °F 89% 29.87 in 5.0 mi NE 6.9 mph - 0.00 in   Overcast
2:50 PM 75.2 °F - 71.6 °F 89% 29.86 in 9.0 mi ENE 9.2 mph - 0.00 in   Mostly Cloudy
2:53 PM 75.9 °F - 71.1 °F 85% 29.85 in 10.0 mi ENE 5.8 mph - 0.00 in   Mostly Cloudy
3:00 PM 75.2 °F - 71.6 °F 89% 29.87 in 9.0 mi NNE 5.8 mph - N/A   Overcast
3:53 PM 77.0 °F - 71.1 °F 82% 29.85 in 10.0 mi NE 5.8 mph - N/A   Overcast
4:19 PM 78.8 °F - 69.8 °F 74% 29.85 in 10.0 mi NNE 6.9 mph - N/A   Partly Cloudy
4:53 PM 80.1 °F 82.9 °F 69.1 °F 69% 29.84 in 10.0 mi North 8.1 mph - N/A   Clear
6:53 PM 77.0 °F - 69.1 °F 76% 29.86 in 10.0 mi NE 5.8 mph - N/A   Clear
7:53 PM 75.9 °F - 71.1 °F 85% 29.86 in 8.0 mi NE 4.6 mph - N/A   Clear
8:53 PM 73.9 °F - 68.0 °F 82% 29.87 in 10.0 mi NE 4.6 mph - N/A   Clear
9:53 PM 73.0 °F - 68.0 °F 84% 29.87 in 9.0 mi Calm Calm - N/A   Clear
11:53 PM 70.0 °F - 66.9 °F 90% 29.88 in 6.0 mi Calm Calm - N/A   Clear